• In Austria
  • List of Countries
  • For 7 days
  • Water Temperature
  • Satellite Maps
  • Weather Map
  • News
  • Weather Widgets
  • user-avatar
    Login

    Hourly Weather Solden

    Today, 16 August, Thursday

    Time Temperature Precipitation Wind Pressure Humidity
    00:00 +6°C° 0 mm 1 mps 586 mmHg 89%
    01:00 +7°C° 0 mm 1 mps 586 mmHg 87%
    02:00 +6°C° 0 mm 1 mps 586 mmHg 88%
    03:00 +6°C° 0 mm 1 mps 585 mmHg 89%
    04:00 +6°C° 0 mm 1 mps 585 mmHg 90%
    05:00 +7°C° 0 mm 1 mps 586 mmHg 87%
    06:00 +8°C° 0 mm 1 mps 586 mmHg 83%
    07:00 +10°C° 0 mm 1 mps 587 mmHg 78%
    08:00 +11°C° 0 mm 1 mps 588 mmHg 70%
    09:00 +13°C° 0 mm 1 mps 589 mmHg 61%
    10:00 +15°C° 0 mm 1 mps 589 mmHg 53%
    11:00 +16°C° 0 mm 1 mps 589 mmHg 51%
    12:00 +16°C° 0 mm 1 mps 589 mmHg 49%
    13:00 +18°C° 0 mm 1 mps 589 mmHg 48%
    14:00 +18°C° 0.1 mm 1 mps 589 mmHg 50%
    15:00 +16°C° 0.1 mm 1 mps 589 mmHg 53%
    16:00 +16°C° 0.1 mm 1 mps 588 mmHg 55%
    17:00 +14°C° 0.2 mm 1 mps 587 mmHg 63%
    18:00 +13°C° 0.2 mm 1 mps 587 mmHg 71%
    19:00 +11°C° 0.2 mm 1 mps 586 mmHg 79%
    20:00 +10°C° 0.1 mm 1 mps 586 mmHg 84%
    21:00 +9°C° 0.1 mm 1 mps 585 mmHg 88%
    22:00 +6°C° 0.1 mm 0 mps 585 mmHg 93%
    23:00 +7°C° 0 mm 1 mps 585 mmHg 93%

    Tomorrow, 17 August, Friday

    Time Temperature Precipitation Wind Pressure Humidity
    00:00 +7°C° 0 mm 1 mps 585 mmHg 93%
    01:00 +7°C° 0 mm 1 mps 585 mmHg 93%
    02:00 +7°C° 0 mm 1 mps 585 mmHg 93%
    03:00 +7°C° 0 mm 1 mps 584 mmHg 94%
    04:00 +7°C° 0 mm 1 mps 584 mmHg 94%
    05:00 +8°C° 0 mm 1 mps 585 mmHg 91%
    06:00 +9°C° 0 mm 1 mps 585 mmHg 88%
    07:00 +10°C° 0 mm 1 mps 586 mmHg 84%
    08:00 +12°C° 0 mm 1 mps 587 mmHg 75%
    09:00 +14°C° 0 mm 1 mps 588 mmHg 66%
    10:00 +15°C° 0 mm 0 mps 588 mmHg 56%
    11:00 +18°C° 0.3 mm 1 mps 589 mmHg 55%
    12:00 +18°C° 0.3 mm 1 mps 589 mmHg 54%
    13:00 +17°C° 0.3 mm 2 mps 589 mmHg 53%
    14:00 +17°C° 0.8 mm 2 mps 588 mmHg 56%
    15:00 +16°C° 0.8 mm 2 mps 588 mmHg 59%
    16:00 +16°C° 0.8 mm 2 mps 588 mmHg 62%
    17:00 +14°C° 1.1 mm 2 mps 587 mmHg 70%
    18:00 +13°C° 1.1 mm 1 mps 587 mmHg 78%
    19:00 +11°C° 1.1 mm 1 mps 586 mmHg 86%
    20:00 +11°C° 1 mm 1 mps 586 mmHg 88%
    21:00 +10°C° 1 mm 1 mps 586 mmHg 90%
    22:00 +9°C° 1 mm 1 mps 586 mmHg 92%
    23:00 +9°C° 0.4 mm 1 mps 586 mmHg 92%

    Day after tomorrow, 18 August, Saturday

    Time Temperature Precipitation Wind Pressure Humidity
    00:00 +9°C° 0.4 mm 1 mps 586 mmHg 92%
    01:00 +8°C° 0.4 mm 1 mps 586 mmHg 93%
    02:00 +8°C° 0.1 mm 1 mps 586 mmHg 93%
    03:00 +8°C° 0.1 mm 1 mps 586 mmHg 93%
    04:00 +7°C° 0.1 mm 1 mps 586 mmHg 93%
    05:00 +8°C° 0 mm 1 mps 586 mmHg 91%
    06:00 +9°C° 0 mm 1 mps 587 mmHg 89%
    07:00 +10°C° 0 mm 1 mps 587 mmHg 86%
    08:00 +11°C° 0.1 mm 1 mps 588 mmHg 79%
    09:00 +13°C° 0.1 mm 1 mps 589 mmHg 72%
    10:00 +15°C° 0.1 mm 1 mps 590 mmHg 65%
    11:00 +15°C° 0.8 mm 1 mps 590 mmHg 64%
    12:00 +16°C° 0.8 mm 1 mps 590 mmHg 63%
    13:00 +16°C° 0.8 mm 1 mps 590 mmHg 63%
    14:00 +16°C° 1.3 mm 1 mps 590 mmHg 64%
    15:00 +16°C° 1.3 mm 1 mps 589 mmHg 66%
    16:00 +15°C° 1.3 mm 1 mps 589 mmHg 68%
    17:00 +14°C° 1.2 mm 1 mps 589 mmHg 73%
    18:00 +13°C° 1.2 mm 1 mps 588 mmHg 79%
    19:00 +11°C° 1.2 mm 1 mps 588 mmHg 85%
    20:00 +11°C° 1.1 mm 1 mps 588 mmHg 87%
    21:00 +10°C° 1.1 mm 1 mps 588 mmHg 88%
    22:00 +10°C° 1.1 mm 1 mps 588 mmHg 90%
    23:00 +9°C° 0.6 mm 1 mps 588 mmHg 90%

    19 August, Sunday

    Time Temperature Precipitation Wind Pressure Humidity
    00:00 +9°C° 0.6 mm 1 mps 588 mmHg 91%
    01:00 +9°C° 0.6 mm 1 mps 588 mmHg 91%
    02:00 +9°C° 0.2 mm 1 mps 588 mmHg 92%
    03:00 +8°C° 0.2 mm 1 mps 587 mmHg 92%
    04:00 +8°C° 0.2 mm 1 mps 587 mmHg 92%
    05:00 +9°C° 0.2 mm 1 mps 588 mmHg 90%
    06:00 +9°C° 0.2 mm 1 mps 588 mmHg 88%
    07:00 +10°C° 0.2 mm 1 mps 588 mmHg 86%
    08:00 +12°C° 0.1 mm 1 mps 589 mmHg 79%
    09:00 +14°C° 0.1 mm 1 mps 590 mmHg 72%
    10:00 +15°C° 0.1 mm 1 mps 591 mmHg 65%
    11:00 +16°C° 0.6 mm 1 mps 591 mmHg 63%
    12:00 +16°C° 0.6 mm 1 mps 591 mmHg 61%
    13:00 +18°C° 0.6 mm 1 mps 591 mmHg 60%
    14:00 +18°C° 1.2 mm 1 mps 591 mmHg 61%
    15:00 +16°C° 1.2 mm 2 mps 591 mmHg 63%
    16:00 +16°C° 1.2 mm 2 mps 590 mmHg 65%
    17:00 +15°C° 0.8 mm 1 mps 590 mmHg 72%
    18:00 +13°C° 0.8 mm 1 mps 589 mmHg 78%
    19:00 +12°C° 0.8 mm 1 mps 589 mmHg 84%
    20:00 +11°C° 0.4 mm 1 mps 589 mmHg 87%
    21:00 +10°C° 0.4 mm 1 mps 589 mmHg 89%
    22:00 +9°C° 0.4 mm 1 mps 589 mmHg 92%
    23:00 +9°C° 0.1 mm 1 mps 588 mmHg 92%

    20 August, Monday

    Time Temperature Precipitation Wind Pressure Humidity
    00:00 +9°C° 0.1 mm 1 mps 588 mmHg 93%
    01:00 +8°C° 0.1 mm 1 mps 588 mmHg 93%
    02:00 +8°C° 0 mm 1 mps 587 mmHg 93%
    03:00 +8°C° 0 mm 1 mps 587 mmHg 93%
    04:00 +7°C° 0 mm 1 mps 587 mmHg 92%
    05:00 +8°C° 0 mm 1 mps 587 mmHg 89%
    06:00 +10°C° 0 mm 1 mps 588 mmHg 86%
    07:00 +11°C° 0 mm 1 mps 589 mmHg 83%
    08:00 +12°C° 0 mm 0 mps 590 mmHg 75%
    09:00 +14°C° 0 mm 0 mps 591 mmHg 66%
    10:00 +16°C° 0 mm 0 mps 592 mmHg 57%
    11:00 +18°C° 0.2 mm 1 mps 592 mmHg 56%
    12:00 +19°C° 0.2 mm 1 mps 592 mmHg 54%
    13:00 +19°C° 0.2 mm 1 mps 592 mmHg 53%
    14:00 +18°C° 0.5 mm 2 mps 591 mmHg 54%
    15:00 +18°C° 0.5 mm 2 mps 591 mmHg 56%
    16:00 +18°C° 0.5 mm 2 mps 591 mmHg 58%
    17:00 +16°C° 0.6 mm 2 mps 590 mmHg 66%
    18:00 +14°C° 0.6 mm 1 mps 589 mmHg 75%
    19:00 +12°C° 0.6 mm 1 mps 589 mmHg 83%
    20:00 +11°C° 0.4 mm 1 mps 589 mmHg 86%
    21:00 +10°C° 0.4 mm 1 mps 588 mmHg 89%
    22:00 +10°C° 0.4 mm 1 mps 588 mmHg 92%
    23:00 +9°C° 0.1 mm 1 mps 588 mmHg 92%

    21 August, Tuesday

    Time Temperature Precipitation Wind Pressure Humidity
    00:00 +9°C° 0.1 mm 1 mps 588 mmHg 93%
    01:00 +9°C° 0.1 mm 1 mps 588 mmHg 93%
    02:00 +8°C° 0 mm 1 mps 588 mmHg 93%
    03:00 +8°C° 0 mm 1 mps 587 mmHg 93%
    04:00 +8°C° 0 mm 1 mps 587 mmHg 93%
    05:00 +9°C° 0 mm 1 mps 588 mmHg 90%
    06:00 +10°C° 0 mm 1 mps 588 mmHg 87%
    07:00 +11°C° 0 mm 1 mps 589 mmHg 84%
    08:00 +13°C° 0 mm 1 mps 590 mmHg 75%
    09:00 +14°C° 0 mm 0 mps 591 mmHg 66%
    10:00 +17°C° 0 mm 0 mps 592 mmHg 57%
    11:00 +19°C° 0.5 mm 1 mps 592 mmHg 54%
    12:00 +20°C° 0.5 mm 1 mps 592 mmHg 52%
    13:00 +20°C° 0.5 mm 1 mps 592 mmHg 50%
    14:00 +19°C° 0.9 mm 2 mps 591 mmHg 53%
    15:00 +18°C° 0.9 mm 2 mps 591 mmHg 56%
    16:00 +18°C° 0.9 mm 2 mps 590 mmHg 59%
    17:00 +16°C° 0.8 mm 1 mps 590 mmHg 67%
    18:00 +14°C° 0.8 mm 1 mps 589 mmHg 75%
    19:00 +12°C° 0.8 mm 1 mps 588 mmHg 84%
    20:00 +11°C° 0.6 mm 1 mps 588 mmHg 86%
    21:00 +10°C° 0.6 mm 1 mps 588 mmHg 89%
    22:00 +9°C° 0.6 mm 1 mps 587 mmHg 92%
    23:00 +9°C° 0.4 mm 1 mps 587 mmHg 91%
    Show more